CW5039 Weather Reports


Display with metric or nautical units.
time (UTC)temp
F
wind
direction
speed
MPH
gust
MPH
rain 1hr
in
rain 24hr
in
rain mn
in
humidity
%
barometer
mb
20260509154905 51 306 1.0 3.0 0.00 0.30 0.00 94 1002.1
20260509154406 51 306 2.0 3.0 0.00 0.30 0.00 95 1002.1
20260509153405 51 286 1.0 2.0 0.00 0.30 0.00 95 1002.3
20260509152905 51 286 0.0 0.0 0.00 0.30 0.00 95 1002.4
20260509152405 51 286 0.0 2.0 0.00 0.30 0.00 95 1002.4
20260509151905 51 286 1.0 3.0 0.00 0.30 0.00 95 1002.4
20260509151405 50 287 2.0 3.0 0.00 0.30 0.00 94 1002.4
20260509150906 51 296 3.0 3.0 0.00 0.30 0.00 94 1002.5
20260509150405 51 292 4.0 5.0 0.00 0.30 0.00 95 1002.5
20260509145905 51 289 5.0 6.0 0.00 0.30 0.00 95 1002.5
20260509144905 50 281 3.0 5.0 0.00 0.30 0.00 94 1002.6
20260509142905 50 286 2.0 3.0 0.00 0.30 0.00 94 1002.7
20260509142405 51 282 2.0 3.0 0.00 0.30 0.00 94 1002.8
20260509141905 51 280 2.0 3.0 0.00 0.30 0.00 94 1002.7
20260509141405 51 279 2.0 3.0 0.00 0.30 0.00 94 1002.8
20260509140905 51 279 2.0 3.0 0.00 0.30 0.00 94 1002.8
20260509140405 51 279 2.0 2.0 0.00 0.30 0.00 94 1002.8
20260509135905 51 279 1.0 2.0 0.00 0.30 0.00 94 1002.9
20260509134905 51 279 1.0 2.0 0.00 0.31 0.00 94 1002.8
20260509134406 51 279 2.0 2.0 0.00 0.33 0.00 94 1002.9
20260509132906 52 280 2.0 3.0 0.00 0.34 0.00 94 1002.9
20260509132405 53 279 2.0 3.0 0.00 0.34 0.00 94 1002.9
20260509131905 53 278 2.0 3.0 0.00 0.34 0.00 94 1002.9
20260509125405 54 280 3.0 3.0 0.00 0.35 0.00 94 1002.8
20260509124905 54 280 3.0 3.0 0.00 0.35 0.00 94 1002.9
20260509121905 56 286 2.0 3.0 0.02 0.35 0.00 94 1002.9
20260509121405 57 286 1.0 2.0 0.02 0.37 0.00 94 1003.0
20260509114905 57 290 3.0 6.0 0.03 0.52 0.49 94 1003.4
20260509113906 57 297 6.0 7.0 0.04 0.61 0.49 94 1003.5
20260509113405 57 286 5.0 6.0 0.08 0.63 0.49 94 1003.4
20260509111405 57 293 6.0 9.0 0.07 0.61 0.47 94 1003.2
20260509110905 57 288 6.0 9.0 0.07 0.61 0.47 94 1003.1
20260509110405 57 279 6.0 7.0 0.07 0.61 0.47 94 1003.0
20260509105905 57 284 5.0 7.0 0.07 0.62 0.47 94 1003.0
20260509105405 57 288 5.0 5.0 0.06 0.62 0.46 94 1003.1
20260509104905 57 284 3.0 3.0 0.06 0.63 0.46 94 1003.2
20260509103906 56 329 3.0 3.0 0.05 0.62 0.45 94 1003.0
20260509102405 56 345 3.0 5.0 0.00 0.57 0.40 94 1003.1
20260509101405 56 337 2.0 3.0 0.00 0.57 0.40 94 1003.3
20260509100905 56 337 2.0 3.0 0.00 0.57 0.40 94 1003.3
20260509095905 56 336 2.0 3.0 0.00 0.60 0.40 94 1003.2
20260509095404 56 336 2.0 3.0 0.00 0.61 0.40 94 1003.2
20260509094905 57 328 2.0 3.0 0.00 0.61 0.40 94 1003.0
20260509093405 57 306 8.0 12.0 0.00 0.64 0.40 94 1003.2
20260509092905 57 307 9.0 12.0 0.00 0.65 0.40 94 1003.3
20260509092405 57 307 9.0 12.0 0.00 0.66 0.40 94 1003.2
20260509090904 57 304 8.0 10.0 0.00 0.66 0.40 94 1003.0
20260509090405 57 316 8.0 12.0 0.00 0.66 0.40 94 1003.0
20260509084905 58 308 6.0 12.0 0.00 0.67 0.40 93 1002.9
20260509084405 58 326 10.0 12.0 0.01 0.67 0.40 93 1002.9
20260509083405 58 323 9.0 12.0 0.01 0.67 0.40 93 1002.9
20260509082904 58 321 8.0 10.0 0.02 0.67 0.40 93 1002.9
20260509082405 58 326 7.0 8.0 0.02 0.67 0.40 93 1002.9
20260509081905 58 331 5.0 6.0 0.02 0.67 0.40 93 1002.8
20260509081405 58 330 5.0 6.0 0.02 0.67 0.40 93 1002.7
20260509080404 58 318 5.0 6.0 0.03 0.67 0.40 93 1002.9
20260509074405 58 331 5.0 7.0 0.03 0.66 0.39 93 1003.0
20260509072905 59 333 5.0 7.0 0.04 0.65 0.39 92 1003.0
20260509072405 59 315 6.0 8.0 0.06 0.65 0.39 92 1003.1
20260509070905 59 321 6.0 9.0 0.05 0.64 0.37 92 1003.1
20260509070405 59 315 5.0 6.0 0.05 0.64 0.37 92 1002.9
20260509065905 59 310 6.0 6.0 0.05 0.64 0.37 92 1002.9
20260509064905 59 314 5.0 6.0 0.05 0.64 0.37 92 1002.9
20260509063905 60 315 7.0 9.0 0.04 0.63 0.36 92 1002.9
20260509063405 60 305 5.0 8.0 0.04 0.63 0.36 91 1002.9
20260509062905 59 291 6.0 9.0 0.02 0.61 0.35 91 1002.9
20260509061905 59 283 5.0 7.0 0.00 0.59 0.32 90 1002.9
20260509061405 59 304 3.0 5.0 0.00 0.59 0.32 90 1002.7
20260509060905 59 317 4.0 5.0 0.00 0.59 0.32 89 1002.7
20260509055905 59 324 5.0 6.0 0.00 0.59 0.32 89 1002.6
20260509055405 59 333 5.0 6.0 0.00 0.59 0.32 88 1002.5
20260509054905 59 328 5.0 7.0 0.00 0.59 0.32 88 1002.5
20260509054404 59 333 6.0 7.0 0.00 0.59 0.32 87 1002.4
20260509053905 59 326 4.0 5.0 0.00 0.59 0.32 87 1002.4
20260509053405 59 323 5.0 5.0 0.01 0.59 0.32 86 1002.5
20260509052905 60 315 5.0 6.0 0.01 0.59 0.32 86 1002.6
20260509051905 60 315 3.0 3.0 0.01 0.59 0.32 85 1002.4
20260509050404 61 280 3.0 7.0 0.01 0.59 0.32 84 1002.5
20260509045905 61 296 5.0 10.0 0.01 0.59 0.32 84 1002.6
20260509045405 61 294 8.0 12.0 0.01 0.59 0.32 83 1002.6
20260509044904 62 300 10.0 13.0 0.01 0.59 0.32 83 1002.6
20260509044405 62 287 10.0 13.0 0.01 0.59 0.32 81 1002.8
20260509042905 63 284 12.0 17.0 0.00 0.58 0.31 82 1003.1
20260509042405 64 274 7.0 9.0 0.00 0.58 0.31 82 1003.0
20260509041904 64 279 7.0 12.0 0.00 0.58 0.31 81 1003.0
20260509035906 64 280 12.0 17.0 0.00 0.58 0.31 79 1003.2
20260509033905 65 289 12.0 17.0 0.00 0.58 0.31 76 1002.9
20260509032405 67 264 10.0 15.0 0.00 0.58 0.31 72 1002.9
20260509031905 67 276 9.0 13.0 0.00 0.58 0.31 74 1003.0
20260509031404 66 273 12.0 15.0 0.00 0.58 0.31 74 1003.0
20260509025404 66 279 14.0 20.0 0.00 0.58 0.31 72 1003.0
20260509024905 67 287 18.0 21.0 0.00 0.58 0.31 74 1003.0
20260509024405 67 288 14.0 21.0 0.00 0.58 0.31 74 1003.0
20260509023405 66 288 14.0 20.0 0.00 0.58 0.31 75 1003.0
20260509022905 66 293 17.0 20.0 0.00 0.58 0.31 73 1002.9
20260509021404 67 272 12.0 17.0 0.00 0.58 0.31 75 1002.9
20260509020405 68 285 12.0 15.0 0.00 0.58 0.31 75 1003.1
20260509015405 68 279 12.0 16.0 0.00 0.58 0.31 76 1003.1
20260509014905 68 299 11.0 16.0 0.00 0.58 0.31 76 1003.0
20260509014405 68 288 16.0 20.0 0.00 0.58 0.31 75 1003.0
20260509013905 68 289 16.0 20.0 0.00 0.58 0.31 75 1003.0
20260509013405 68 300 13.0 18.0 0.00 0.58 0.31 75 1003.0
20260509012405 67 291 13.0 20.0 0.00 0.58 0.31 77 1003.2
20260509010905 66 280 15.0 20.0 0.00 0.58 0.31 76 1003.4
20260509010405 66 293 18.0 21.0 0.00 0.58 0.31 77 1003.5
20260509004405 66 293 10.0 15.0 0.00 0.58 0.31 79 1003.8
20260509003405 67 291 14.0 20.0 0.00 0.58 0.31 77 1004.0
20260509002904 67 300 14.0 23.0 0.00 0.58 0.31 77 1004.1
20260509001405 67 288 18.0 24.0 0.01 0.58 0.31 79 1004.5
20260508235406 65 296 13.0 20.0 0.11 0.58 0.31 87 1005.0
20260508234905 64 280 13.0 20.0 0.11 0.58 0.31 86 1005.0
20260508233905 63 281 14.0 17.0 0.11 0.58 0.31 87 1005.1
20260508232905 63 296 16.0 20.0 0.11 0.58 0.31 87 1005.1
20260508231905 62 282 12.0 15.0 0.11 0.58 0.31 88 1005.3
20260508231404 64 275 14.0 21.0 0.10 0.57 0.31 83 1005.4
20260508225904 67 297 11.0 16.0 0.00 0.47 0.20 84 1005.1
20260508224405 66 318 12.0 15.0 0.00 0.47 0.20 84 1005.4
20260508223905 66 315 12.0 14.0 0.00 0.47 0.20 85 1005.4
20260508223404 66 308 12.0 16.0 0.00 0.47 0.20 85 1005.6
20260508222904 66 315 14.0 17.0 0.00 0.47 0.20 85 1005.5
20260508221405 65 307 14.0 18.0 0.00 0.47 0.20 86 1005.7
20260508220905 65 287 14.0 18.0 0.00 0.47 0.20 85 1005.7
20260508214904 63 318 13.0 17.0 0.01 0.47 0.20 89 1005.9
20260508213405 63 324 10.0 13.0 0.02 0.47 0.20 90 1005.9
20260508212904 64 324 9.0 13.0 0.02 0.47 0.20 91 1005.9
20260508212405 63 331 12.0 14.0 0.02 0.47 0.20 91 1005.9
20260508211404 63 320 10.0 14.0 0.02 0.47 0.20 92 1006.0
20260508210405 62 332 10.0 13.0 0.02 0.47 0.20 93 1005.9
20260508205404 61 324 10.0 13.0 0.02 0.47 0.20 93 1005.9
20260508204906 61 333 10.0 14.0 0.01 0.46 0.20 93 1005.9
20260508201904 60 337 9.0 12.0 0.00 0.46 0.19 94 1005.6
20260508200404 59 352 9.0 12.0 0.00 0.46 0.19 94 1005.6
20260508195905 58 348 8.0 12.0 0.00 0.46 0.19 94 1005.5
20260508195405 58 338 6.0 8.0 0.00 0.46 0.19 94 1005.6
20260508192406 58 339 7.0 10.0 0.00 0.46 0.19 94 1005.3
20260508191406 58 332 7.0 10.0 0.00 0.46 0.19 94 1005.3
20260508190906 58 334 8.0 10.0 0.00 0.46 0.19 94 1005.2
20260508190405 57 330 9.0 12.0 0.00 0.46 0.19 94 1005.1
20260508184909 57 337 6.0 9.0 0.00 0.46 0.19 93 1005.0
20260508184406 57 335 6.0 9.0 0.00 0.46 0.19 93 1005.0
20260508183905 58 329 7.0 9.0 0.00 0.46 0.19 93 1005.1
20260508181405 59 321 8.0 12.0 0.00 0.46 0.19 94 1005.1
20260508175905 58 338 6.0 9.0 0.00 0.46 0.19 94 1005.1
20260508175405 58 323 7.0 10.0 0.00 0.46 0.19 94 1005.1
20260508174906 58 328 9.0 12.0 0.00 0.46 0.19 94 1005.1
20260508170405 58 326 10.0 12.0 0.00 0.46 0.19 93 1005.0
20260508165405 59 332 12.0 15.0 0.00 0.46 0.19 93 1005.0
20260508164905 59 329 10.0 12.0 0.00 0.46 0.19 93 1005.0
20260508163906 59 346 10.0 12.0 0.00 0.46 0.19 93 1005.1
20260508163405 59 349 10.0 13.0 0.00 0.46 0.19 93 1005.2
20260508162406 60 355 5.0 10.0 0.00 0.46 0.19 93 1005.3
20260508161905 60 7 7.0 10.0 0.00 0.46 0.19 93 1005.5
20260508161406 60 8 7.0 12.0 0.00 0.46 0.19 93 1005.4
20260508160405 60 15 9.0 13.0 0.00 0.46 0.19 93 1005.5